VE7SML-6 Weather Reports


time (UTC)temp
C
wind
direction
speed
KPH
gust
KPH
rain 1hr
cm
rain 24hr
cm
rain mn
cm
humidity
%
barometer
mb
20260503181655 22 247 0.0 14.5 0.00 0.00 0.00 52 1111.0
20260503181155 21 247 0.0 8.0 0.00 0.00 0.00 52 1111.0
20260503180655 21 22 0.0 16.1 0.00 0.00 0.00 52 1111.0
20260503180154 21 247 0.0 3.2 0.00 0.00 0.00 52 1111.0
20260503175654 21 247 0.0 9.7 0.00 0.00 0.00 52 1111.0
20260503174654 21 0 0.0 8.0 0.00 0.00 0.00 52 1111.0
20260503174153 20 0 8.0 9.7 0.00 0.00 0.00 52 1111.0
20260503150644 12 157 0.0 0.0 0.00 0.00 0.00 50 1111.0
20260503150144 12 157 0.0 0.0 0.00 0.00 0.00 50 1111.0
20260503140142 7 157 0.0 4.8 0.00 0.00 0.00 51 1111.0
20260503131138 6 157 0.0 11.3 0.00 0.00 0.00 51 1111.0
20260503130638 6 157 0.0 9.7 0.00 0.00 0.00 51 1111.0
20260503100127 9 157 0.0 0.0 0.00 0.00 0.00 51 1111.0
20260503090124 10 0 0.0 0.0 0.00 0.00 0.00 52 1111.0
20260503081241 10 0 0.0 0.0 0.00 0.00 0.00 53 1111.0
20260503080240 10 0 0.0 3.2 0.00 0.00 0.00 53 1111.0
20260503072738 10 0 0.0 1.6 0.00 0.00 0.00 10 1111.0
20260503072238 10 0 0.0 0.0 0.00 0.00 0.00 53 1111.0
20260503071238 10 0 0.0 0.0 0.00 0.00 0.00 53 1111.0
20260503070737 10 0 0.0 1.6 0.00 0.00 0.00 53 1111.0
20260503070237 11 0 1.6 1.6 0.00 0.00 0.00 53 1111.0
20260503060234 11 0 0.0 11.3 0.00 0.00 0.00 54 1111.0
20260503054232 11 0 0.0 3.2 0.00 0.00 0.00 54 1111.0
20260503053732 12 0 0.0 3.2 0.00 0.00 0.00 55 1111.0
20260503052732 12 22 0.0 3.2 0.00 0.00 0.00 55 1111.0
20260503052232 12 22 0.0 0.0 0.00 0.00 0.00 55 1111.0
20260503051731 12 157 0.0 0.0 0.00 0.00 0.00 55 1111.0
20260503050730 12 157 0.0 0.0 0.00 0.00 0.00 55 1111.0
20260503045730 13 157 0.0 0.0 0.00 0.00 0.00 55 1111.0
20260503045230 13 157 0.0 0.0 0.00 0.00 0.00 55 1111.0
20260503044729 13 157 0.0 1.6 0.00 0.00 0.00 55 1111.0
20260503044229 13 157 0.0 0.0 0.00 0.00 0.00 55 1111.0
20260503043729 13 157 0.0 4.8 0.00 0.00 0.00 56 1111.0
20260503043229 13 157 0.0 1.6 0.00 0.00 0.00 56 1111.0
20260503042228 14 157 1.6 16.1 0.00 0.00 0.00 57 1111.0
20260503041728 14 157 4.8 6.4 0.00 0.00 0.00 57 1111.0
20260503040727 15 157 8.0 9.7 0.00 0.00 0.00 57 1111.0
20260503040227 15 157 0.0 14.5 0.00 0.00 0.00 57 1111.0
20260503034726 16 157 3.2 19.3 0.00 0.00 0.00 58 1111.0
20260503030223 20 157 8.0 8.0 0.00 0.00 0.00 60 1111.0
20260503025724 20 157 0.0 4.8 0.00 0.00 0.00 60 1111.0
20260503025223 21 157 0.0 16.1 0.00 0.00 0.00 60 1111.0
20260503023722 22 157 3.2 8.0 0.00 0.00 0.00 61 1111.0
20260503023222 22 247 0.0 8.0 0.00 0.00 0.00 61 1111.0
20260503022721 22 157 0.0 4.8 0.00 0.00 0.00 61 1111.0
20260503022221 22 247 0.0 8.0 0.00 0.00 0.00 61 1111.0
20260503021721 23 247 8.0 11.3 0.00 0.00 0.00 61 1111.0
20260503020221 23 247 0.0 6.4 0.00 0.00 0.00 61 1111.0
20260503015721 23 247 0.0 3.2 0.00 0.00 0.00 60 1111.0
20260503015219 24 247 0.0 1.6 0.00 0.00 0.00 60 1111.0
20260503014720 24 247 0.0 0.0 0.00 0.00 0.00 60 1111.0
20260503013719 24 247 0.0 9.7 0.00 0.00 0.00 60 1111.0
20260503012718 24 0 0.0 14.5 0.00 0.00 0.00 60 1111.0
20260503012218 25 0 0.0 9.7 0.00 0.00 0.00 59 1111.0
20260503010217 25 337 0.0 6.4 0.00 0.00 0.00 60 1111.0
20260503005717 25 315 0.0 0.0 0.00 0.00 0.00 60 1111.0
20260503003715 25 180 0.0 0.0 0.00 0.00 0.00 60 1111.0
20260503003215 25 180 0.0 6.4 0.00 0.00 0.00 59 1111.0
20260503002716 25 202 0.0 0.0 0.00 0.00 0.00 58 1111.0
20260503001715 25 337 0.0 9.7 0.00 0.00 0.00 58 1111.0
20260502235213 24 180 0.0 3.2 0.00 0.00 0.00 57 1111.0
20260502234714 23 180 0.0 6.4 0.00 0.00 0.00 57 1111.0
20260502233713 23 247 0.0 0.0 0.00 0.00 0.00 56 1111.0
20260502232712 23 247 0.0 0.0 0.00 0.00 0.00 55 1111.0
20260502232212 23 247 0.0 1.6 0.00 0.00 0.00 54 1111.0
20260502231712 23 247 0.0 6.4 0.00 0.00 0.00 54 1111.0
20260502223209 23 247 0.0 1.6 0.00 0.00 0.00 52 1111.0
20260502222709 23 247 1.6 6.4 0.00 0.00 0.00 52 1111.0
20260502222209 23 157 0.0 6.4 0.00 0.00 0.00 52 1111.0
20260502221708 23 157 0.0 4.8 0.00 0.00 0.00 52 1111.0
20260502220208 23 157 0.0 9.7 0.00 0.00 0.00 51 1111.0
20260502214205 23 247 0.0 6.4 0.00 0.00 0.00 51 1111.0
20260502213205 23 247 0.0 8.0 0.00 0.00 0.00 51 1111.0
20260502212704 22 247 0.0 8.0 0.00 0.00 0.00 51 1111.0
20260502203702 22 247 0.0 8.0 0.00 0.00 0.00 53 1111.0
20260502202201 22 247 0.0 0.0 0.00 0.00 0.00 53 1111.0
20260502201219 22 135 0.0 0.0 0.00 0.00 0.00 53 1111.0
20260502200700 22 247 0.0 0.0 0.00 0.00 0.00 53 1111.0
20260502195659 21 247 0.0 0.0 0.00 0.00 0.00 53 1111.0
20260502195200 21 247 0.0 6.4 0.00 0.00 0.00 54 1111.0
20260502194159 21 247 0.0 9.7 0.00 0.00 0.00 54 1111.0
20260502193658 21 247 0.0 6.4 0.00 0.00 0.00 54 1111.0
20260502184657 21 247 0.0 0.0 0.00 0.00 0.00 53 1111.0
20260502183655 21 247 0.0 0.0 0.00 0.00 0.00 53 1111.0
20260502182655 21 247 0.0 0.0 0.00 0.00 0.00 53 1111.0
20260502182154 21 247 0.0 0.0 0.00 0.00 0.00 53 1111.0